RADUGA-1M 3 [+]

Last updated on July 6, 2021, 3:35 p.m. UTC

1 39375U 13062A   21186.51037476  .00000163  00000-0  00000-0 0  9990
2 39375   1.3688  93.7312 0001148 321.6783  86.9877  1.00274249 28008
UTC
Height (km)
Latitude
Longitude
Inclination
Orbital Period
UTC large
Height (km)
Speed (km/s)
/
Latitude / Longitude
Inclination (degrees)
Orbital Period (minutes)
Azimuth
Elevation
Range (km)
Doppler Factor
iOS Compass Heading
iOS Angle